Tracking 19176 objects as of 25-May-2018
HD Live streaming from Space Station
objects crossing your sky now

OPS 5712 (P/L 160)

Track OPS 5712 (P/L 160) now!
10-day predictions
OPS 5712 (P/L 160) is classified as:


NORAD ID: 2826
Int'l Code: 1967-053A
Perigee: 732.1 km
Apogee: 744.3 km
Inclination: 69.9 °
Period: 99.4 minutes
Semi major axis: 7109 km
RCS: 0.3991 m2 (medium)
Launch date: May 31, 1967
Source: United States (US)
Launch site: AIR FORCE WESTERN TEST RANGE (AFWTR)
aabbcc
Your satellite tracking list
Your tracking list is empty




NASA's NSSDC Master Catalog

Two Line Element Set (TLE):
1 02826U 67053A   18144.68754889  .00000516  00000-0  15412-3 0  9990
2 02826  69.9269 164.2711 0008541 271.4458  88.5697 14.48343687638123
Source of the keplerian elements: AFSPC